| time (UTC) | temp C | wind direction | speed KPH | gust KPH | rain 1hr cm | rain 24hr cm | rain mn cm | humidity % | barometer mb |
| 20260510104907 | 7 | 320 | 3.2 | 9.7 | 0.00 | 0.53 | 0.00 | 90 | 1007.2 |
| 20260510103907 | 6 | 330 | 3.2 | 8.0 | 0.00 | 0.53 | 0.00 | 93 | 1006.8 |
| 20260510102907 | 6 | 320 | 3.2 | 12.9 | 0.00 | 0.53 | 0.00 | 92 | 1006.7 |
| 20260510101907 | 6 | 330 | 3.2 | 8.0 | 0.00 | 0.53 | 0.00 | 90 | 1006.7 |
| 20260510100907 | 6 | 316 | 1.6 | 8.0 | 0.00 | 0.53 | 0.00 | 93 | 1006.4 |
| 20260510095907 | 6 | 315 | 3.2 | 8.0 | 0.00 | 0.53 | 0.00 | 95 | 1006.0 |
| 20260510094907 | 6 | 329 | 3.2 | 9.7 | 0.00 | 0.53 | 0.00 | 96 | 1006.0 |
| 20260510093907 | 6 | 324 | 3.2 | 9.7 | 0.00 | 0.53 | 0.00 | 95 | 1005.6 |
| 20260510092907 | 6 | 312 | 3.2 | 9.7 | 0.00 | 0.53 | 0.00 | 94 | 1005.5 |
| 20260510091908 | 7 | 309 | 3.2 | 9.7 | 0.00 | 0.53 | 0.00 | 94 | 1005.5 |
| 20260510090909 | 7 | 311 | 3.2 | 9.7 | 0.00 | 0.53 | 0.00 | 95 | 1005.5 |
| 20260510085908 | 7 | 329 | 3.2 | 11.3 | 0.00 | 0.53 | 0.00 | 97 | 1005.4 |
| 20260510084907 | 7 | 333 | 3.2 | 11.3 | 0.00 | 0.53 | 0.00 | 97 | 1005.2 |
| 20260510083908 | 6 | 322 | 3.2 | 9.7 | 0.00 | 0.53 | 0.00 | 99 | 1005.1 |
| 20260510082907 | 6 | 325 | 1.6 | 8.0 | 0.00 | 0.53 | 0.00 | 99 | 1004.8 |
| 20260510081907 | 6 | 340 | 3.2 | 8.0 | 0.00 | 0.53 | 0.00 | 99 | 1005.1 |
| 20260510080907 | 7 | 341 | 3.2 | 9.7 | 0.00 | 0.53 | 0.00 | 99 | 1004.7 |
| 20260510074907 | 7 | 327 | 3.2 | 8.0 | 0.00 | 0.51 | 0.00 | 99 | 1004.7 |
| 20260510073907 | 7 | 347 | 3.2 | 8.0 | 0.00 | 0.51 | 0.00 | 99 | 1004.4 |
| 20260510072907 | 7 | 324 | 1.6 | 6.4 | 0.00 | 0.51 | 0.00 | 99 | 1004.3 |
| 20260510071908 | 7 | 348 | 1.6 | 8.0 | 0.00 | 0.51 | 0.00 | 99 | 1004.2 |
| 20260510070909 | 7 | 325 | 3.2 | 8.0 | 0.00 | 0.51 | 0.00 | 99 | 1003.9 |
| 20260510065908 | 7 | 322 | 3.2 | 8.0 | 0.00 | 0.51 | 0.00 | 99 | 1004.3 |
| 20260510064908 | 7 | 325 | 3.2 | 8.0 | 0.00 | 0.51 | 0.00 | 99 | 1004.4 |
| 20260510063908 | 7 | 307 | 1.6 | 6.4 | 0.00 | 0.51 | 0.00 | 99 | 1004.1 |
| 20260510062909 | 7 | 313 | 3.2 | 6.4 | 0.00 | 0.51 | 0.00 | 99 | 1003.6 |
| 20260510061908 | 6 | 316 | 3.2 | 8.0 | 0.00 | 0.51 | 0.00 | 99 | 1003.8 |
| 20260510060908 | 6 | 349 | 1.6 | 6.4 | 0.00 | 0.51 | 0.00 | 99 | 1003.6 |
| 20260510055908 | 7 | 296 | 1.6 | 6.4 | 0.00 | 0.51 | 0.00 | 99 | 1003.9 |
| 20260510054908 | 7 | 302 | 1.6 | 9.7 | 0.00 | 0.51 | 0.00 | 99 | 1003.6 |
| 20260510053908 | 7 | 302 | 1.6 | 6.4 | 0.00 | 0.51 | 0.00 | 99 | 1003.8 |
| 20260510052908 | 7 | 294 | 3.2 | 8.0 | 0.00 | 0.51 | 0.00 | 99 | 1003.5 |
| 20260510051908 | 7 | 324 | 1.6 | 6.4 | 0.00 | 0.51 | 0.00 | 99 | 1003.1 |
| 20260510050908 | 7 | 322 | 1.6 | 6.4 | 0.00 | 0.51 | 0.00 | 99 | 1003.3 |
| 20260510045908 | 8 | 313 | 1.6 | 4.8 | 0.00 | 0.51 | 0.00 | 99 | 1002.2 |
| 20260510044908 | 8 | 302 | 1.6 | 8.0 | 0.00 | 0.51 | 0.00 | 99 | 1003.1 |
| 20260510043908 | 8 | 304 | 1.6 | 8.0 | 0.00 | 0.51 | 0.00 | 99 | 1003.2 |
| 20260510042908 | 8 | 320 | 1.6 | 6.4 | 0.00 | 0.51 | 0.00 | 99 | 1002.7 |
| 20260510041909 | 8 | 322 | 1.6 | 8.0 | 0.00 | 0.51 | 0.00 | 99 | 1002.6 |
| 20260510040908 | 8 | 314 | 1.6 | 9.7 | 0.00 | 0.51 | 0.00 | 99 | 1002.7 |
| 20260510035908 | 7 | 315 | 1.6 | 9.7 | 0.00 | 0.51 | 0.51 | 99 | 1002.5 |
| 20260510034908 | 8 | 315 | 1.6 | 6.4 | 0.00 | 0.51 | 0.51 | 99 | 1002.4 |
| 20260510033907 | 8 | 304 | 1.6 | 6.4 | 0.00 | 0.51 | 0.51 | 99 | 1002.3 |
| 20260510032909 | 8 | 311 | 1.6 | 8.0 | 0.03 | 0.51 | 0.51 | 99 | 1002.2 |
| 20260510031908 | 8 | 339 | 1.6 | 6.4 | 0.05 | 0.51 | 0.51 | 99 | 1002.1 |
| 20260510030909 | 8 | 302 | 1.6 | 9.7 | 0.08 | 0.51 | 0.51 | 99 | 1001.8 |
| 20260510025908 | 8 | 296 | 1.6 | 6.4 | 0.10 | 0.51 | 0.51 | 99 | 1001.5 |
| 20260510024908 | 8 | 301 | 3.2 | 8.0 | 0.15 | 0.51 | 0.51 | 99 | 1001.9 |
| 20260510023908 | 8 | 303 | 3.2 | 12.9 | 0.15 | 0.51 | 0.51 | 99 | 1001.8 |
| 20260510022908 | 8 | 290 | 3.2 | 8.0 | 0.18 | 0.48 | 0.48 | 99 | 1002.2 |
| 20260510021908 | 9 | 315 | 1.6 | 6.4 | 0.20 | 0.48 | 0.48 | 99 | 1002.0 |
| 20260510020908 | 9 | 318 | 1.6 | 6.4 | 0.20 | 0.43 | 0.43 | 99 | 1001.9 |
| 20260510015908 | 9 | 308 | 3.2 | 8.0 | 0.23 | 0.41 | 0.41 | 99 | 1001.7 |
| 20260510014908 | 10 | 16 | 3.2 | 8.0 | 0.23 | 0.38 | 0.38 | 99 | 1001.6 |
| 20260510013908 | 10 | 16 | 1.6 | 6.4 | 0.28 | 0.36 | 0.36 | 99 | 1001.5 |
| 20260510012907 | 10 | 16 | 1.6 | 6.4 | 0.30 | 0.33 | 0.33 | 99 | 1001.3 |
| 20260510011908 | 10 | 33 | 1.6 | 6.4 | 0.28 | 0.28 | 0.28 | 99 | 1001.3 |
| 20260510010908 | 10 | 12 | 1.6 | 6.4 | 0.23 | 0.23 | 0.23 | 99 | 1001.0 |
| 20260510005908 | 10 | 45 | 1.6 | 6.4 | 0.18 | 0.18 | 0.18 | 99 | 1001.3 |
| 20260510004907 | 10 | 30 | 1.6 | 6.4 | 0.15 | 0.15 | 0.15 | 99 | 1001.0 |
| 20260510003911 | 10 | 334 | 3.2 | 22.5 | 0.08 | 0.08 | 0.08 | 98 | 1001.6 |
| 20260510002909 | 11 | 285 | 3.2 | 22.5 | 0.03 | 0.03 | 0.03 | 92 | 1001.9 |
| 20260510001907 | 12 | 229 | 0.0 | 4.8 | 0.00 | 0.00 | 0.00 | 84 | 999.5 |
| 20260510000908 | 12 | 244 | 1.6 | 4.8 | 0.00 | 0.00 | 0.00 | 84 | 999.1 |
| 20260509235907 | 13 | 242 | 1.6 | 6.4 | 0.00 | 0.00 | 0.00 | 83 | 999.1 |
| 20260509234908 | 13 | 239 | 1.6 | 8.0 | 0.00 | 0.00 | 0.00 | 82 | 999.1 |
| 20260509233908 | 13 | 245 | 1.6 | 8.0 | 0.00 | 0.00 | 0.00 | 82 | 999.0 |
| 20260509232909 | 13 | 231 | 1.6 | 6.4 | 0.00 | 0.00 | 0.00 | 80 | 999.1 |
| 20260509231908 | 14 | 233 | 1.6 | 8.0 | 0.00 | 0.00 | 0.00 | 80 | 999.1 |
| 20260509230907 | 14 | 217 | 1.6 | 6.4 | 0.00 | 0.00 | 0.00 | 80 | 999.1 |
| 20260509225908 | 14 | 264 | 1.6 | 6.4 | 0.00 | 0.00 | 0.00 | 79 | 999.8 |
| 20260509224908 | 14 | 257 | 1.6 | 6.4 | 0.00 | 0.00 | 0.00 | 78 | 999.9 |
| 20260509223907 | 14 | 240 | 1.6 | 8.0 | 0.00 | 0.00 | 0.00 | 78 | 1000.1 |
| 20260509222910 | 15 | 222 | 1.6 | 8.0 | 0.00 | 0.00 | 0.00 | 79 | 999.9 |
| 20260509221908 | 15 | 231 | 3.2 | 9.7 | 0.00 | 0.00 | 0.00 | 78 | 1000.0 |
| 20260509220908 | 15 | 235 | 1.6 | 8.0 | 0.00 | 0.00 | 0.00 | 78 | 999.9 |
| 20260509215908 | 15 | 255 | 1.6 | 11.3 | 0.00 | 0.00 | 0.00 | 76 | 999.9 |
| 20260509214908 | 15 | 241 | 1.6 | 11.3 | 0.00 | 0.00 | 0.00 | 76 | 1000.0 |
| 20260509213907 | 15 | 242 | 1.6 | 6.4 | 0.00 | 0.00 | 0.00 | 76 | 1000.0 |
| 20260509212907 | 15 | 215 | 1.6 | 9.7 | 0.00 | 0.00 | 0.00 | 75 | 1000.2 |
| 20260509211908 | 15 | 150 | 1.6 | 8.0 | 0.00 | 0.00 | 0.00 | 74 | 1000.0 |
| 20260509210908 | 16 | 143 | 1.6 | 12.9 | 0.00 | 0.00 | 0.00 | 73 | 1000.0 |
| 20260509205908 | 16 | 111 | 3.2 | 11.3 | 0.00 | 0.00 | 0.00 | 73 | 999.9 |
| 20260509204909 | 16 | 76 | 3.2 | 11.3 | 0.00 | 0.00 | 0.00 | 73 | 1000.0 |
| 20260509203908 | 17 | 78 | 3.2 | 12.9 | 0.00 | 0.00 | 0.00 | 72 | 1000.1 |
| 20260509202907 | 17 | 30 | 3.2 | 11.3 | 0.00 | 0.00 | 0.00 | 70 | 1000.4 |
| 20260509201908 | 17 | 14 | 3.2 | 11.3 | 0.00 | 0.00 | 0.00 | 69 | 1000.3 |
| 20260509200907 | 17 | 28 | 3.2 | 16.1 | 0.00 | 0.00 | 0.00 | 70 | 1000.6 |
| 20260509195908 | 17 | 56 | 3.2 | 11.3 | 0.00 | 0.00 | 0.00 | 70 | 1000.9 |
| 20260509194907 | 17 | 69 | 3.2 | 11.3 | 0.00 | 0.00 | 0.00 | 68 | 1001.0 |
| 20260509193908 | 16 | 328 | 3.2 | 19.3 | 0.00 | 0.00 | 0.00 | 70 | 1001.1 |
| 20260509192908 | 17 | 30 | 3.2 | 11.3 | 0.00 | 0.00 | 0.00 | 70 | 1001.3 |
| 20260509191907 | 17 | 341 | 3.2 | 12.9 | 0.00 | 0.00 | 0.00 | 70 | 1001.3 |
| 20260509190908 | 16 | 67 | 4.8 | 14.5 | 0.00 | 0.00 | 0.00 | 66 | 1001.5 |
| 20260509185907 | 16 | 186 | 4.8 | 17.7 | 0.00 | 0.00 | 0.00 | 67 | 1001.8 |
| 20260509184907 | 16 | 94 | 3.2 | 16.1 | 0.00 | 0.00 | 0.00 | 69 | 1001.9 |
| 20260509183907 | 16 | 262 | 3.2 | 14.5 | 0.00 | 0.00 | 0.00 | 71 | 1001.8 |
| 20260509182907 | 16 | 135 | 4.8 | 11.3 | 0.00 | 0.00 | 0.00 | 72 | 1002.2 |
| 20260509181907 | 16 | 104 | 3.2 | 11.3 | 0.00 | 0.00 | 0.00 | 69 | 1002.3 |
| 20260509180908 | 16 | 91 | 3.2 | 11.3 | 0.00 | 0.00 | 0.00 | 70 | 1002.4 |
| 20260509175907 | 16 | 24 | 3.2 | 11.3 | 0.00 | 0.00 | 0.00 | 71 | 1002.6 |
| 20260509174909 | 16 | 309 | 3.2 | 11.3 | 0.00 | 0.00 | 0.00 | 74 | 1002.7 |
| 20260509173907 | 16 | 354 | 3.2 | 9.7 | 0.00 | 0.00 | 0.00 | 72 | 1002.8 |
| 20260509172908 | 15 | 28 | 3.2 | 12.9 | 0.00 | 0.00 | 0.00 | 74 | 1002.6 |
| 20260509171907 | 16 | 68 | 3.2 | 9.7 | 0.00 | 0.00 | 0.00 | 72 | 1002.7 |
| 20260509170909 | 16 | 338 | 3.2 | 16.1 | 0.00 | 0.00 | 0.00 | 73 | 1002.6 |
| 20260509165908 | 15 | 329 | 3.2 | 12.9 | 0.00 | 0.00 | 0.00 | 70 | 1002.7 |
| 20260509164909 | 16 | 360 | 3.2 | 11.3 | 0.00 | 0.00 | 0.00 | 69 | 1002.7 |
| 20260509163908 | 16 | 6 | 3.2 | 9.7 | 0.00 | 0.00 | 0.00 | 73 | 1003.1 |
| 20260509162908 | 15 | 8 | 3.2 | 9.7 | 0.00 | 0.00 | 0.00 | 70 | 1003.4 |
| 20260509161907 | 15 | 40 | 3.2 | 9.7 | 0.00 | 0.00 | 0.00 | 73 | 1003.3 |
| 20260509160909 | 14 | 354 | 3.2 | 8.0 | 0.00 | 0.00 | 0.00 | 73 | 1003.5 |
| 20260509155907 | 14 | 27 | 3.2 | 9.7 | 0.00 | 0.00 | 0.00 | 71 | 1003.8 |
| 20260509154909 | 14 | 16 | 3.2 | 9.7 | 0.00 | 0.00 | 0.00 | 73 | 1003.8 |
| 20260509153907 | 13 | 91 | 3.2 | 9.7 | 0.00 | 0.00 | 0.00 | 75 | 1003.9 |
| 20260509152907 | 13 | 49 | 3.2 | 8.0 | 0.00 | 0.00 | 0.00 | 72 | 1004.1 |
| 20260509151907 | 13 | 122 | 3.2 | 11.3 | 0.00 | 0.00 | 0.00 | 72 | 1004.4 |
| 20260509150909 | 13 | 310 | 3.2 | 11.3 | 0.00 | 0.00 | 0.00 | 74 | 1004.5 |
| 20260509145907 | 13 | 353 | 3.2 | 8.0 | 0.00 | 0.00 | 0.00 | 73 | 1004.2 |
| 20260509144909 | 12 | 90 | 3.2 | 8.0 | 0.00 | 0.00 | 0.00 | 74 | 1004.4 |
| 20260509143907 | 13 | 164 | 3.2 | 9.7 | 0.00 | 0.00 | 0.00 | 71 | 1004.2 |
| 20260509142907 | 12 | 194 | 3.2 | 16.1 | 0.00 | 0.00 | 0.00 | 73 | 1004.3 |
| 20260509141908 | 12 | 214 | 3.2 | 12.9 | 0.00 | 0.00 | 0.00 | 75 | 1004.5 |
| 20260509140907 | 11 | 220 | 3.2 | 11.3 | 0.00 | 0.00 | 0.00 | 74 | 1004.7 |
| 20260509135908 | 11 | 206 | 3.2 | 12.9 | 0.00 | 0.00 | 0.00 | 76 | 1004.8 |
| 20260509134907 | 10 | 197 | 3.2 | 11.3 | 0.00 | 0.00 | 0.00 | 76 | 1004.8 |
| 20260509133907 | 10 | 178 | 3.2 | 12.9 | 0.00 | 0.00 | 0.00 | 76 | 1005.0 |
| 20260509132907 | 10 | 184 | 3.2 | 14.5 | 0.00 | 0.00 | 0.00 | 75 | 1005.0 |
| 20260509131907 | 10 | 147 | 3.2 | 12.9 | 0.00 | 0.00 | 0.00 | 75 | 1005.3 |
| 20260509130908 | 9 | 162 | 3.2 | 11.3 | 0.00 | 0.00 | 0.00 | 76 | 1005.0 |
| 20260509125907 | 9 | 163 | 3.2 | 12.9 | 0.00 | 0.00 | 0.00 | 77 | 1005.1 |
| 20260509124907 | 9 | 160 | 4.8 | 12.9 | 0.00 | 0.00 | 0.00 | 75 | 1005.2 |
| 20260509123907 | 10 | 174 | 1.6 | 12.9 | 0.00 | 0.00 | 0.00 | 75 | 1005.4 |
| 20260509122908 | 9 | 149 | 3.2 | 12.9 | 0.00 | 0.00 | 0.00 | 75 | 1005.3 |
| 20260509121907 | 8 | 143 | 3.2 | 11.3 | 0.00 | 0.00 | 0.00 | 76 | 1005.5 |
| 20260509120908 | 8 | 146 | 1.6 | 11.3 | 0.00 | 0.00 | 0.00 | 77 | 1005.3 |
| 20260509115907 | 8 | 130 | 3.2 | 14.5 | 0.00 | 0.00 | 0.00 | 76 | 1005.2 |
| 20260509114909 | 8 | 138 | 3.2 | 9.7 | 0.00 | 0.00 | 0.00 | 77 | 1005.4 |
| 20260509113910 | 8 | 127 | 3.2 | 12.9 | 0.00 | 0.00 | 0.00 | 76 | 1005.4 |
| 20260509113907 | 8 | 127 | 3.2 | 12.9 | 0.00 | 0.00 | 0.00 | 76 | 1005.4 |
| 20260509112908 | 8 | 126 | 3.2 | 12.9 | 0.00 | 0.00 | 0.00 | 75 | 1005.3 |
| 20260509111907 | 8 | 110 | 3.2 | 12.9 | 0.00 | 0.00 | 0.00 | 76 | 1005.7 |
| 20260509110908 | 7 | 99 | 3.2 | 11.3 | 0.00 | 0.00 | 0.00 | 76 | 1005.5 |
| 20260509105907 | 7 | 92 | 3.2 | 16.1 | 0.00 | 0.00 | 0.00 | 77 | 1005.3 |